,,PA_Meas_PMT16A,,PR_Meas_QMR101_102,,RH_Meas_QMH101,,SR_Meas_QMS101,,TA_Meas_QMH101,,GenWind,,GenWind,
time,status,PA,status,PR,status,RH,status,SR,status,TA,status,DirAvg,status,SpdAvg,
2012-05-30, 00:00:05,VALID,917.147,VALID,0,VALID,97.1757,VALID,0,VALID,20.1678,VALID,159,VALID,0.673437,
2012-05-30, 00:01:05,VALID,917.13,VALID,0,VALID,97.1604,VALID,0,VALID,20.1873,VALID,136,VALID,0.805859,
2012-05-30, 00:02:05,VALID,917.147,VALID,0,VALID,97.1757,VALID,0,VALID,20.2278,VALID,136,VALID,0.755469,
2012-05-30, 00:03:05,VALID,917.17,VALID,0,VALID,97.1909,VALID,0,VALID,20.2263,VALID,136,VALID,0.340234,
2012-05-30, 00:04:05,VALID,917.203,VALID,0,VALID,97.1986,VALID,0,VALID,20.2473,VALID,136,VALID,0,
2012-05-30, 00:05:05,VALID,917.192,VALID,0,VALID,97.1909,VALID,0,VALID,20.2083,VALID,136,VALID,0.382813,
2012-05-30, 00:06:05,VALID,917.208,VALID,0,VALID,97.2062,VALID,0,VALID,20.2083,VALID,136,VALID,0.632813,
2012-05-30, 00:07:05,VALID,917.226,VALID,0,VALID,97.1986,VALID,0,VALID,20.2083,VALID,136,VALID,0.536719,
2012-05-30, 00:08:05,VALID,917.222,VALID,0,VALID,97.1909,VALID,0,VALID,20.2083,VALID,136,VALID,0.539063,
2012-05-30, 00:09:05,VALID,917.261,VALID,0,VALID,97.1909,VALID,0,VALID,20.1693,VALID,136,VALID,0.630469,
2012-05-30, 00:10:05,VALID,917.268,VALID,0,VALID,97.1986,VALID,0,VALID,20.1693,VALID,136,VALID,0.513281,
2012-05-30, 00:11:05,VALID,917.25,VALID,0,VALID,97.2138,VALID,0,VALID,20.1303,VALID,136,VALID,0.688672,
2012-05-30, 00:12:04,VALID,917.277,VALID,0,VALID,97.1909,VALID,0,VALID,20.1498,VALID,136,VALID,0.659766,
2012-05-30, 00:13:04,VALID,917.242,VALID,0,VALID,97.2138,VALID,0,VALID,20.1513,VALID,136,VALID,0.705859,
2012-05-30, 00:14:04,VALID,917.279,VALID,0,VALID,97.2214,VALID,0,VALID,20.1108,VALID,136,VALID,0.81875,
2012-05-30, 00:15:04,VALID,917.242,VALID,0,VALID,97.1986,VALID,0,VALID,20.0913,VALID,136,VALID,0.566016,
2012-05-30, 00:16:04,VALID,917.296,VALID,0,VALID,97.2138,VALID,0,VALID,20.0928,VALID,136,VALID,0.276172,
2012-05-30, 00:17:04,VALID,917.256,VALID,0,VALID,97.229,VALID,0,VALID,20.0718,VALID,136,VALID,0.612891,
2012-05-30, 00:18:04,VALID,917.258,VALID,0,VALID,97.2214,VALID,0,VALID,20.0718,VALID,136,VALID,0.483594,
2012-05-30, 00:19:04,VALID,917.265,VALID,0,VALID,97.2367,VALID,0,VALID,20.0913,VALID,136,VALID,0.545313,
2012-05-30, 00:20:04,VALID,917.274,VALID,0,VALID,97.2519,VALID,0,VALID,20.0913,VALID,136,VALID,0.419531,
2012-05-30, 00:21:04,VALID,917.248,VALID,0,VALID,97.2595,VALID,0,VALID,20.0913,VALID,136,VALID,0.677734,
2012-05-30, 00:22:04,VALID,917.23,VALID,0,VALID,97.2367,VALID,0,VALID,20.0928,VALID,136,VALID,0.757813,
2012-05-30, 00:23:04,VALID,917.233,VALID,0,VALID,97.2672,VALID,0,VALID,20.0523,VALID,136,VALID,0.636719,
2012-05-30, 00:24:04,VALID,917.231,VALID,0,VALID,97.2595,VALID,0,VALID,20.0328,VALID,136,VALID,0.825781,
2012-05-30, 00:25:04,VALID,917.221,VALID,0,VALID,97.2595,VALID,0,VALID,19.9938,VALID,136,VALID,0.716016,
2012-05-30, 00:26:04,VALID,917.225,VALID,0,VALID,97.2519,VALID,0,VALID,20.0133,VALID,136,VALID,0.914844,
2012-05-30, 00:27:04,VALID,917.224,VALID,0,VALID,97.2672,VALID,0,VALID,19.9923,VALID,136,VALID,0.582812,
2012-05-30, 00:28:04,VALID,917.228,VALID,0,VALID,97.2672,VALID,0,VALID,19.9923,VALID,136,VALID,0.825,
2012-05-30, 00:29:04,VALID,917.217,VALID,0,VALID,97.2824,VALID,0.107441,VALID,19.9923,VALID,136,VALID,0.603125,
2012-05-30, 00:30:04,VALID,917.228,VALID,0,VALID,97.3053,VALID,0.107441,VALID,19.9923,VALID,136,VALID,0.607031,
2012-05-30, 00:31:04,VALID,917.182,VALID,0,VALID,97.29,VALID,0.107441,VALID,19.9728,VALID,136,VALID,0.551953,
2012-05-30, 00:32:04,VALID,917.171,VALID,0,VALID,97.2977,VALID,0,VALID,19.9533,VALID,136,VALID,0,
2012-05-30, 00:33:04,VALID,917.187,VALID,0,VALID,97.29,VALID,0.107441,VALID,19.9143,VALID,136,VALID,0,
2012-05-30, 00:34:04,VALID,917.144,VALID,0,VALID,97.2748,VALID,0,VALID,19.8378,VALID,136,VALID,0,
2012-05-30, 00:35:04,VALID,917.154,VALID,0,VALID,97.2595,VALID,0.107441,VALID,19.7793,VALID,136,VALID,0,
2012-05-30, 00:36:04,VALID,917.119,VALID,0,VALID,97.2595,VALID,0,VALID,19.7193,VALID,136,VALID,0,
2012-05-30, 00:37:04,VALID,917.099,VALID,0,VALID,97.2443,VALID,0,VALID,19.7013,VALID,136,VALID,0,
2012-05-30, 00:38:04,VALID,917.082,VALID,0,VALID,97.29,VALID,0,VALID,19.6803,VALID,136,VALID,0,
2012-05-30, 00:39:04,VALID,917.04,VALID,0,VALID,97.2977,VALID,0,VALID,19.6998,VALID,136,VALID,0,
2012-05-30, 00:40:04,VALID,917.027,VALID,0,VALID,97.3358,VALID,0,VALID,19.7598,VALID,65,VALID,1.27305,
2012-05-30, 00:41:04,VALID,916.98,VALID,0,VALID,97.3358,VALID,0,VALID,19.7973,VALID,65,VALID,1.08828,
2012-05-30, 00:42:04,VALID,916.952,VALID,0,VALID,97.3434,VALID,0,VALID,19.8378,VALID,74,VALID,1.22344,
2012-05-30, 00:43:04,VALID,916.958,VALID,0,VALID,97.3815,VALID,0,VALID,19.8558,VALID,76,VALID,1.01641,
2012-05-30, 00:44:04,VALID,916.92,VALID,0,VALID,97.3739,VALID,0,VALID,19.8558,VALID,76,VALID,1.04609,
2012-05-30, 00:45:04,VALID,916.892,VALID,0,VALID,97.3739,VALID,0,VALID,19.8753,VALID,76,VALID,0.906641,
2012-05-30, 00:46:04,VALID,916.864,VALID,0,VALID,97.3968,VALID,0,VALID,19.8558,VALID,76,VALID,0.760938,
2012-05-30, 00:47:04,VALID,916.872,VALID,0,VALID,97.3815,VALID,0.107441,VALID,19.8753,VALID,76,VALID,0.547656,
2012-05-30, 00:48:04,VALID,916.875,VALID,0,VALID,97.412,VALID,0,VALID,19.8558,VALID,97,VALID,0.414844,
2012-05-30, 00:49:04,VALID,916.89,VALID,0,VALID,97.3968,VALID,0,VALID,19.8768,VALID,97,VALID,0.568359,
2012-05-30, 00:50:04,VALID,916.864,VALID,0,VALID,97.3815,VALID,0.107441,VALID,19.8363,VALID,97,VALID,0.486719,
2012-05-30, 00:51:04,VALID,916.89,VALID,0,VALID,97.3891,VALID,0.107441,VALID,19.8363,VALID,97,VALID,0.308203,
2012-05-30, 00:52:04,VALID,916.845,VALID,0,VALID,97.3815,VALID,0,VALID,19.7778,VALID,97,VALID,0.360547,
2012-05-30, 00:53:04,VALID,916.833,VALID,0,VALID,97.3891,VALID,0.107441,VALID,19.7388,VALID,97,VALID,0.533594,
2012-05-30, 00:54:04,VALID,916.821,VALID,0,VALID,97.3968,VALID,0,VALID,19.7388,VALID,97,VALID,0.585547,
2012-05-30, 00:55:04,VALID,916.803,VALID,0,VALID,97.412,VALID,0,VALID,19.7793,VALID,97,VALID,0.418359,
2012-05-30, 00:56:04,VALID,916.805,VALID,0,VALID,97.412,VALID,0,VALID,19.7598,VALID,97,VALID,0.103516,
2012-05-30, 00:57:04,VALID,916.773,VALID,0,VALID,97.3968,VALID,0,VALID,19.7583,VALID,97,VALID,0.192578,
2012-05-30, 00:58:04,VALID,916.771,VALID,0,VALID,97.4044,VALID,0,VALID,19.7793,VALID,97,VALID,0,
2012-05-30, 00:59:04,VALID,916.726,VALID,0,VALID,97.4196,VALID,0,VALID,19.7793,VALID,97,VALID,0,
2012-05-30, 01:00:04,VALID,916.682,VALID,0,VALID,97.4196,VALID,0,VALID,19.7988,VALID,97,VALID,0,
2012-05-30, 01:01:04,VALID,916.678,VALID,0,VALID,97.4196,VALID,0,VALID,19.7988,VALID,97,VALID,0,
2012-05-30, 01:02:04,VALID,916.62,VALID,0,VALID,97.4196,VALID,0,VALID,19.7793,VALID,97,VALID,0,
2012-05-30, 01:03:04,VALID,916.583,VALID,0,VALID,97.4349,VALID,0,VALID,19.7988,VALID,59,VALID,1.04609,
2012-05-30, 01:04:04,VALID,916.565,VALID,0,VALID,97.4425,VALID,0,VALID,19.7778,VALID,59,VALID,0.926953,
2012-05-30, 01:05:04,VALID,916.596,VALID,0,VALID,97.4501,VALID,0,VALID,19.7778,VALID,59,VALID,0.708203,
2012-05-30, 01:06:04,VALID,916.584,VALID,0,VALID,97.4349,VALID,0,VALID,19.7793,VALID,59,VALID,0.520703,
2012-05-30, 01:07:04,VALID,916.598,VALID,0,VALID,97.4349,VALID,0,VALID,19.7403,VALID,59,VALID,0.480859,
2012-05-30, 01:08:04,VALID,916.569,VALID,0,VALID,97.4425,VALID,0,VALID,19.7208,VALID,59,VALID,0.489844,
2012-05-30, 01:09:04,VALID,916.566,VALID,0,VALID,97.4273,VALID,0,VALID,19.7208,VALID,59,VALID,0.381641,
2012-05-30, 01:10:04,VALID,916.573,VALID,0,VALID,97.4425,VALID,0,VALID,19.7013,VALID,59,VALID,0.492188,
2012-05-30, 01:11:04,VALID,916.594,VALID,0,VALID,97.4349,VALID,0,VALID,19.6608,VALID,59,VALID,0.367578,
2012-05-30, 01:12:04,VALID,916.561,VALID,0,VALID,97.4654,VALID,0,VALID,19.6803,VALID,59,VALID,0.529297,
2012-05-30, 01:13:04,VALID,916.539,VALID,0,VALID,97.4501,VALID,0,VALID,19.6833,VALID,59,VALID,0.647656,
2012-05-30, 01:14:04,VALID,916.528,VALID,0,VALID,97.4501,VALID,0,VALID,19.6638,VALID,59,VALID,0.653906,
2012-05-30, 01:15:04,VALID,916.48,VALID,0,VALID,97.4501,VALID,0,VALID,19.6233,VALID,59,VALID,0.574219,
2012-05-30, 01:16:04,VALID,916.479,VALID,0,VALID,97.473,VALID,0,VALID,19.6428,VALID,59,VALID,0.635156,
2012-05-30, 01:17:04,VALID,916.455,VALID,0.2,VALID,97.4654,VALID,0,VALID,19.6233,VALID,59,VALID,0.415234,
2012-05-30, 01:18:04,VALID,916.433,VALID,0,VALID,97.4654,VALID,0,VALID,19.6428,VALID,59,VALID,0.362891,
2012-05-30, 01:19:04,VALID,916.467,VALID,0,VALID,97.4959,VALID,0,VALID,19.6428,VALID,59,VALID,0.166406,
2012-05-30, 01:20:04,VALID,916.465,VALID,0,VALID,97.4882,VALID,0,VALID,19.6428,VALID,59,VALID,0.0304688,
2012-05-30, 01:21:04,VALID,916.44,VALID,0,VALID,97.473,VALID,0,VALID,19.6428,VALID,59,VALID,0.0121094,
2012-05-30, 01:22:04,VALID,916.467,VALID,0,VALID,97.4882,VALID,0,VALID,19.6233,VALID,59,VALID,0,
2012-05-30, 01:23:04,VALID,916.454,VALID,0,VALID,97.4959,VALID,0,VALID,19.5633,VALID,59,VALID,0.00078125,
2012-05-30, 01:24:04,VALID,916.436,VALID,0,VALID,97.4882,VALID,0,VALID,19.5648,VALID,59,VALID,0.316406,
2012-05-30, 01:25:04,VALID,916.42,VALID,0,VALID,97.4806,VALID,0,VALID,19.5453,VALID,59,VALID,0.243359,
2012-05-30, 01:26:04,VALID,916.43,VALID,0,VALID,97.5035,VALID,0,VALID,19.5663,VALID,59,VALID,0.274609,
2012-05-30, 01:27:04,VALID,916.44,VALID,0,VALID,97.5111,VALID,0,VALID,19.5453,VALID,59,VALID,0.376953,
2012-05-30, 01:28:04,VALID,916.406,VALID,0,VALID,97.4959,VALID,0,VALID,19.6248,VALID,109,VALID,0.451953,
2012-05-30, 01:29:04,VALID,916.415,VALID,0,VALID,97.5035,VALID,0,VALID,19.6233,VALID,109,VALID,0.151172,
2012-05-30, 01:30:04,VALID,916.389,VALID,0,VALID,97.5035,VALID,0,VALID,19.6833,VALID,109,VALID,0.505859,
2012-05-30, 01:31:04,VALID,916.392,VALID,0,VALID,97.5111,VALID,0,VALID,19.6443,VALID,109,VALID,0.344141,
2012-05-30, 01:32:04,VALID,916.381,VALID,0,VALID,97.5416,VALID,0,VALID,19.6248,VALID,109,VALID,0.653516,
2012-05-30, 01:33:04,VALID,916.357,VALID,0,VALID,97.5187,VALID,0,VALID,19.7028,VALID,109,VALID,0.929688,
2012-05-30, 01:34:04,VALID,916.363,VALID,0,VALID,97.5035,VALID,0,VALID,19.7418,VALID,109,VALID,0.672656,
2012-05-30, 01:35:04,VALID,916.346,VALID,0,VALID,97.5264,VALID,0,VALID,19.7613,VALID,109,VALID,0.658203,
2012-05-30, 01:36:04,VALID,916.343,VALID,0,VALID,97.5111,VALID,0,VALID,19.7613,VALID,109,VALID,0.723437,
2012-05-30, 01:37:04,VALID,916.307,VALID,0,VALID,97.5035,VALID,0,VALID,19.7208,VALID,109,VALID,0.800781,
2012-05-30, 01:38:04,VALID,916.298,VALID,0,VALID,97.5187,VALID,0,VALID,19.7613,VALID,130,VALID,1.04883,
2012-05-30, 01:39:04,VALID,916.26,VALID,0,VALID,97.5264,VALID,0,VALID,19.7613,VALID,126,VALID,1.12305,
2012-05-30, 01:40:04,VALID,916.254,VALID,0,VALID,97.534,VALID,0,VALID,19.7793,VALID,135,VALID,1.0043,
2012-05-30, 01:41:04,VALID,916.244,VALID,0,VALID,97.5416,VALID,0,VALID,19.7598,VALID,133,VALID,0.865234,
2012-05-30, 01:42:04,VALID,916.22,VALID,0,VALID,97.5187,VALID,0.107441,VALID,19.7778,VALID,130,VALID,1.50273,
2012-05-30, 01:43:04,VALID,916.196,VALID,0,VALID,97.5492,VALID,0,VALID,19.7988,VALID,147,VALID,1,
2012-05-30, 01:44:04,VALID,916.16,VALID,0,VALID,97.5569,VALID,0,VALID,19.8183,VALID,139,VALID,1.09648,
2012-05-30, 01:45:04,VALID,916.133,VALID,0,VALID,97.5187,VALID,0.107441,VALID,19.7973,VALID,141,VALID,0.839063,
2012-05-30, 01:46:04,VALID,916.171,VALID,0,VALID,97.534,VALID,0,VALID,19.7973,VALID,143,VALID,0.360938,
2012-05-30, 01:47:04,VALID,916.171,VALID,0,VALID,97.5416,VALID,0,VALID,19.8378,VALID,134,VALID,1.23594,
2012-05-30, 01:48:04,VALID,916.149,VALID,0,VALID,97.5569,VALID,0,VALID,19.8183,VALID,135,VALID,0.746875,
2012-05-30, 01:49:04,VALID,916.184,VALID,0,VALID,97.5416,VALID,0,VALID,19.8183,VALID,149,VALID,1.33828,
2012-05-30, 01:50:04,VALID,916.161,VALID,0,VALID,97.5416,VALID,0,VALID,19.7973,VALID,141,VALID,1.03516,
2012-05-30, 01:51:04,VALID,916.126,VALID,0,VALID,97.534,VALID,0,VALID,19.7778,VALID,131,VALID,0.794141,
2012-05-30, 01:52:04,VALID,916.138,VALID,0,VALID,97.534,VALID,0,VALID,19.7988,VALID,134,VALID,1.04258,
2012-05-30, 01:53:04,VALID,916.109,VALID,0,VALID,97.5416,VALID,0,VALID,19.7973,VALID,156,VALID,0.501172,
2012-05-30, 01:54:04,VALID,916.087,VALID,0,VALID,97.5416,VALID,0,VALID,19.7778,VALID,141,VALID,0.495703,
2012-05-30, 01:55:04,VALID,916.105,VALID,0,VALID,97.5416,VALID,0,VALID,19.7973,VALID,141,VALID,0.522266,
2012-05-30, 01:56:04,VALID,916.078,VALID,0,VALID,97.5569,VALID,0,VALID,19.8003,VALID,141,VALID,0.739453,
2012-05-30, 01:57:04,VALID,916.06,VALID,0,VALID,97.534,VALID,0,VALID,19.8003,VALID,136,VALID,0.75,
2012-05-30, 01:58:04,VALID,916.047,VALID,0,VALID,97.5492,VALID,0,VALID,19.7598,VALID,136,VALID,0.777344,
2012-05-30, 01:59:04,VALID,916.065,VALID,0,VALID,97.5569,VALID,0,VALID,19.7208,VALID,136,VALID,0.742188,
2012-05-30, 02:00:04,VALID,916.048,VALID,0,VALID,97.5645,VALID,0,VALID,19.7208,VALID,136,VALID,0.732422,
2012-05-30, 02:01:04,VALID,916.043,VALID,0,VALID,97.5721,VALID,0,VALID,19.7013,VALID,126,VALID,0.791797,
2012-05-30, 02:02:04,VALID,916.031,VALID,0,VALID,97.5492,VALID,0,VALID,19.7403,VALID,126,VALID,1.03516,
2012-05-30, 02:03:04,VALID,915.984,VALID,0,VALID,97.5645,VALID,0,VALID,19.7613,VALID,126,VALID,1.16016,
2012-05-30, 02:04:04,VALID,915.999,VALID,0,VALID,97.5645,VALID,0,VALID,19.7418,VALID,126,VALID,1.31367,
2012-05-30, 02:05:04,VALID,915.973,VALID,0,VALID,97.5721,VALID,0,VALID,19.7208,VALID,126,VALID,0.0121094,
2012-05-30, 02:06:04,VALID,915.967,VALID,0,VALID,97.5645,VALID,0,VALID,19.7013,VALID,126,VALID,0.373047,
2012-05-30, 02:07:04,VALID,915.976,VALID,0,VALID,97.595,VALID,0,VALID,19.7013,VALID,132,VALID,0,
2012-05-30, 02:08:04,VALID,916.005,VALID,0,VALID,97.5645,VALID,0,VALID,19.7013,VALID,118,VALID,0,
2012-05-30, 02:09:04,VALID,916.046,VALID,0,VALID,97.5721,VALID,0,VALID,19.7208,VALID,124,VALID,0,
2012-05-30, 02:10:04,VALID,916.073,VALID,0,VALID,97.5797,VALID,0,VALID,19.7403,VALID,128,VALID,0,
2012-05-30, 02:11:04,VALID,916.05,VALID,0,VALID,97.5797,VALID,0,VALID,19.7403,VALID,127,VALID,0,
2012-05-30, 02:12:04,VALID,916.05,VALID,0,VALID,97.595,VALID,0,VALID,19.7193,VALID,127,VALID,0,
2012-05-30, 02:13:04,VALID,916.065,VALID,0,VALID,97.5873,VALID,0,VALID,19.7403,VALID,127,VALID,0,
2012-05-30, 02:14:04,VALID,916.048,VALID,0,VALID,97.5721,VALID,0,VALID,19.7208,VALID,127,VALID,0,
2012-05-30, 02:15:04,VALID,916.036,VALID,0,VALID,97.5797,VALID,0,VALID,19.7208,VALID,127,VALID,0,
2012-05-30, 02:16:04,VALID,916.036,VALID,0,VALID,97.5873,VALID,0,VALID,19.7403,VALID,150,VALID,0,
2012-05-30, 02:17:04,VALID,916.03,VALID,0,VALID,97.5873,VALID,0.107441,VALID,19.7793,VALID,150,VALID,0,
2012-05-30, 02:18:04,VALID,916.019,VALID,0,VALID,97.5873,VALID,0.107441,VALID,19.7583,VALID,150,VALID,0,
2012-05-30, 02:19:04,VALID,916.026,VALID,0,VALID,97.5797,VALID,0,VALID,19.7988,VALID,155,VALID,0,
2012-05-30, 02:20:04,VALID,916.033,VALID,0,VALID,97.5797,VALID,0,VALID,19.7778,VALID,155,VALID,0,
2012-05-30, 02:21:04,VALID,916.04,VALID,0,VALID,97.5873,VALID,0.107441,VALID,19.7778,VALID,155,VALID,0,
2012-05-30, 02:22:04,VALID,916.025,VALID,0,VALID,97.595,VALID,0.107441,VALID,19.7973,VALID,155,VALID,0,
2012-05-30, 02:23:04,VALID,916.018,VALID,0,VALID,97.5873,VALID,0.107441,VALID,19.7973,VALID,155,VALID,0,
2012-05-30, 02:24:04,VALID,916.045,VALID,0,VALID,97.5873,VALID,0.107441,VALID,19.7778,VALID,155,VALID,0,
2012-05-30, 02:25:04,VALID,915.997,VALID,0,VALID,97.5797,VALID,0.107441,VALID,19.7973,VALID,180,VALID,0,
2012-05-30, 02:26:04,VALID,916.011,VALID,0,VALID,97.5797,VALID,0,VALID,19.7988,VALID,200,VALID,0,
2012-05-30, 02:27:04,VALID,915.992,VALID,0,VALID,97.5721,VALID,0,VALID,19.7988,VALID,200,VALID,0,
2012-05-30, 02:28:04,VALID,915.961,VALID,0,VALID,97.595,VALID,0,VALID,19.7988,VALID,167,VALID,0,
2012-05-30, 02:29:04,VALID,915.952,VALID,0,VALID,97.595,VALID,0,VALID,19.7988,VALID,167,VALID,1.1957,
2012-05-30, 02:30:04,VALID,915.913,VALID,0,VALID,97.6026,VALID,0,VALID,19.7988,VALID,164,VALID,0.982422,
2012-05-30, 02:31:04,VALID,915.904,VALID,0,VALID,97.595,VALID,0,VALID,19.7988,VALID,158,VALID,0.900391,
2012-05-30, 02:32:04,VALID,915.853,VALID,0,VALID,97.5873,VALID,0,VALID,19.8003,VALID,135,VALID,0.4125,
2012-05-30, 02:33:04,VALID,915.852,VALID,0,VALID,97.6178,VALID,0,VALID,19.7598,VALID,135,VALID,1.07344,
2012-05-30, 02:34:04,VALID,915.838,VALID,0,VALID,97.595,VALID,0,VALID,19.7013,VALID,142,VALID,0.719531,
2012-05-30, 02:35:04,VALID,915.804,VALID,0,VALID,97.6102,VALID,0,VALID,19.6623,VALID,135,VALID,0.988672,
2012-05-30, 02:36:04,VALID,915.816,VALID,0,VALID,97.6026,VALID,0,VALID,19.6233,VALID,128,VALID,0.707812,
2012-05-30, 02:37:04,VALID,915.803,VALID,0,VALID,97.6026,VALID,0,VALID,19.6233,VALID,128,VALID,0.473828,
2012-05-30, 02:38:04,VALID,915.815,VALID,0,VALID,97.6102,VALID,0,VALID,19.6233,VALID,139,VALID,0.598047,
2012-05-30, 02:39:04,VALID,915.827,VALID,0,VALID,97.6026,VALID,0,VALID,19.6233,VALID,138,VALID,0.554297,
2012-05-30, 02:40:04,VALID,915.825,VALID,0,VALID,97.6026,VALID,0,VALID,19.6638,VALID,151,VALID,0.857813,
2012-05-30, 02:41:04,VALID,915.875,VALID,0,VALID,97.6178,VALID,0,VALID,19.7028,VALID,153,VALID,1.10312,
2012-05-30, 02:42:04,VALID,915.879,VALID,0,VALID,97.6026,VALID,0,VALID,19.7013,VALID,152,VALID,1.39219,
2012-05-30, 02:43:04,VALID,915.846,VALID,0,VALID,97.6102,VALID,0,VALID,19.7208,VALID,143,VALID,1.3375,
2012-05-30, 02:44:04,VALID,915.879,VALID,0,VALID,97.6178,VALID,0,VALID,19.7418,VALID,159,VALID,1.24141,
2012-05-30, 02:45:04,VALID,915.911,VALID,0,VALID,97.6255,VALID,0,VALID,19.7208,VALID,164,VALID,0.616797,
2012-05-30, 02:46:04,VALID,915.915,VALID,0,VALID,97.6255,VALID,0,VALID,19.7403,VALID,152,VALID,1.07344,
2012-05-30, 02:47:04,VALID,915.911,VALID,0,VALID,97.6255,VALID,0,VALID,19.7403,VALID,166,VALID,1.65078,
2012-05-30, 02:48:04,VALID,915.906,VALID,0,VALID,97.6255,VALID,0,VALID,19.7808,VALID,157,VALID,1.27188,
2012-05-30, 02:49:04,VALID,915.92,VALID,0,VALID,97.6102,VALID,0,VALID,19.7403,VALID,163,VALID,1.3293,
2012-05-30, 02:50:04,VALID,915.934,VALID,0,VALID,97.6331,VALID,0,VALID,19.7598,VALID,175,VALID,1.4,
2012-05-30, 02:51:04,VALID,915.906,VALID,0,VALID,97.6102,VALID,0,VALID,19.7613,VALID,168,VALID,1.69609,
2012-05-30, 02:52:04,VALID,915.919,VALID,0,VALID,97.6178,VALID,0,VALID,19.7403,VALID,165,VALID,1.75234,
2012-05-30, 02:53:04,VALID,915.87,VALID,0,VALID,97.6255,VALID,0,VALID,19.7403,VALID,165,VALID,1.41641,
2012-05-30, 02:54:04,VALID,915.804,VALID,0,VALID,97.6255,VALID,0,VALID,19.7403,VALID,146,VALID,1.68633,
2012-05-30, 02:55:04,VALID,915.77,VALID,0,VALID,97.6026,VALID,0,VALID,19.7208,VALID,160,VALID,1.03398,
2012-05-30, 02:56:04,VALID,915.776,VALID,0,VALID,97.6102,VALID,0,VALID,19.7208,VALID,136,VALID,1.41445,
2012-05-30, 02:57:04,VALID,915.737,VALID,0,VALID,97.6255,VALID,0,VALID,19.7013,VALID,163,VALID,0.798437,
2012-05-30, 02:58:04,VALID,915.715,VALID,0,VALID,97.6255,VALID,0,VALID,19.7013,VALID,146,VALID,1.19219,
2012-05-30, 02:59:04,VALID,915.673,VALID,0,VALID,97.6178,VALID,0,VALID,19.6818,VALID,151,VALID,1.13398,
2012-05-30, 03:00:04,VALID,915.664,VALID,0,VALID,97.6407,VALID,0,VALID,19.7013,VALID,159,VALID,1.0875,
2012-05-30, 03:01:04,VALID,915.657,VALID,0,VALID,97.6407,VALID,0,VALID,19.6833,VALID,160,VALID,0.822266,
2012-05-30, 03:02:04,VALID,915.669,VALID,0,VALID,97.6331,VALID,0,VALID,19.6623,VALID,110,VALID,0.998047,
2012-05-30, 03:03:04,VALID,915.666,VALID,0,VALID,97.6407,VALID,0,VALID,19.6233,VALID,121,VALID,1.31172,
2012-05-30, 03:04:04,VALID,915.645,VALID,0,VALID,97.6331,VALID,0,VALID,19.6248,VALID,126,VALID,0.877344,
2012-05-30, 03:05:04,VALID,915.636,VALID,0,VALID,97.6331,VALID,0,VALID,19.6233,VALID,134,VALID,1.61602,
2012-05-30, 03:06:04,VALID,915.623,VALID,0,VALID,97.6483,VALID,0,VALID,19.6038,VALID,129,VALID,1.83867,
2012-05-30, 03:07:04,VALID,915.656,VALID,0,VALID,97.6483,VALID,0,VALID,19.5843,VALID,145,VALID,1.44922,
2012-05-30, 03:08:04,VALID,915.644,VALID,0,VALID,97.6331,VALID,0,VALID,19.6053,VALID,158,VALID,1.36953,
2012-05-30, 03:09:04,VALID,915.635,VALID,0,VALID,97.6407,VALID,0,VALID,19.5843,VALID,159,VALID,1.18398,
2012-05-30, 03:10:04,VALID,915.641,VALID,0,VALID,97.6483,VALID,0,VALID,19.5858,VALID,140,VALID,1.17656,
2012-05-30, 03:11:04,VALID,915.627,VALID,0,VALID,97.656,VALID,0,VALID,19.5843,VALID,120,VALID,1.05742,
2012-05-30, 03:12:04,VALID,915.64,VALID,0,VALID,97.6483,VALID,0,VALID,19.5843,VALID,155,VALID,0.887109,
2012-05-30, 03:13:04,VALID,915.628,VALID,0,VALID,97.6483,VALID,0,VALID,19.6038,VALID,157,VALID,1.41055,
2012-05-30, 03:14:04,VALID,915.62,VALID,0,VALID,97.6712,VALID,0,VALID,19.5828,VALID,155,VALID,0.580859,
2012-05-30, 03:15:04,VALID,915.617,VALID,0,VALID,97.656,VALID,0.107441,VALID,19.6233,VALID,163,VALID,1.42539,
2012-05-30, 03:16:04,VALID,915.63,VALID,0,VALID,97.6331,VALID,0.107441,VALID,19.5828,VALID,149,VALID,1.26133,
2012-05-30, 03:17:04,VALID,915.599,VALID,0,VALID,97.6407,VALID,0.107441,VALID,19.6023,VALID,162,VALID,1.88359,
2012-05-30, 03:18:04,VALID,915.622,VALID,0,VALID,97.6712,VALID,0.107441,VALID,19.6233,VALID,158,VALID,1.44336,
2012-05-30, 03:19:04,VALID,915.587,VALID,0,VALID,97.6636,VALID,0.107441,VALID,19.6218,VALID,155,VALID,1.61094,
2012-05-30, 03:20:04,VALID,915.582,VALID,0,VALID,97.6712,VALID,0.107441,VALID,19.6023,VALID,155,VALID,1.45,
2012-05-30, 03:21:04,VALID,915.575,VALID,0,VALID,97.6407,VALID,0,VALID,19.6023,VALID,143,VALID,1.21172,
2012-05-30, 03:22:04,VALID,915.561,VALID,0,VALID,97.656,VALID,0,VALID,19.5828,VALID,166,VALID,0.916406,
2012-05-30, 03:23:04,VALID,915.511,VALID,0,VALID,97.6712,VALID,0,VALID,19.5828,VALID,167,VALID,0.761328,
2012-05-30, 03:24:04,VALID,915.526,VALID,0,VALID,97.6788,VALID,0,VALID,19.5828,VALID,168,VALID,0.591016,
2012-05-30, 03:25:04,VALID,915.48,VALID,0,VALID,97.6788,VALID,0,VALID,19.5438,VALID,141,VALID,0.923047,
2012-05-30, 03:26:04,VALID,915.479,VALID,0,VALID,97.6636,VALID,0.107441,VALID,19.4853,VALID,142,VALID,0.654688,
2012-05-30, 03:27:04,VALID,915.449,VALID,0,VALID,97.6788,VALID,0.107441,VALID,19.4463,VALID,130,VALID,1.30156,
2012-05-30, 03:28:04,VALID,915.432,VALID,0,VALID,97.6712,VALID,0.107441,VALID,19.4463,VALID,127,VALID,0.844922,
2012-05-30, 03:29:04,VALID,915.41,VALID,0,VALID,97.656,VALID,0.107441,VALID,19.4463,VALID,127,VALID,1.52891,
2012-05-30, 03:30:04,VALID,915.378,VALID,0,VALID,97.6636,VALID,0.107441,VALID,19.4463,VALID,134,VALID,1.14375,
2012-05-30, 03:31:04,VALID,915.363,VALID,0,VALID,97.6712,VALID,0,VALID,19.4463,VALID,141,VALID,1.11211,
2012-05-30, 03:32:04,VALID,915.31,VALID,0,VALID,97.656,VALID,0.107441,VALID,19.4463,VALID,145,VALID,0.933984,
2012-05-30, 03:33:04,VALID,915.276,VALID,0,VALID,97.6483,VALID,0,VALID,19.4658,VALID,125,VALID,1.75,
2012-05-30, 03:34:04,VALID,915.277,VALID,0,VALID,97.6788,VALID,0.107441,VALID,19.4463,VALID,124,VALID,1.94375,
2012-05-30, 03:35:04,VALID,915.275,VALID,0,VALID,97.656,VALID,0,VALID,19.4268,VALID,127,VALID,1.49141,
2012-05-30, 03:36:04,VALID,915.232,VALID,0,VALID,97.6712,VALID,0.107441,VALID,19.4463,VALID,130,VALID,1.67656,
2012-05-30, 03:37:04,VALID,915.179,VALID,0,VALID,97.6483,VALID,0,VALID,19.4463,VALID,124,VALID,1.83086,
2012-05-30, 03:38:04,VALID,915.18,VALID,0,VALID,97.656,VALID,0,VALID,19.4074,VALID,125,VALID,1.49414,
2012-05-30, 03:39:04,VALID,915.157,VALID,0,VALID,97.6636,VALID,0.107441,VALID,19.3879,VALID,121,VALID,1.22852,
2012-05-30, 03:40:04,VALID,915.195,VALID,0,VALID,97.6407,VALID,0,VALID,19.3879,VALID,125,VALID,1.42813,
2012-05-30, 03:41:04,VALID,915.17,VALID,0,VALID,97.6483,VALID,0,VALID,19.3893,VALID,126,VALID,1.79609,
2012-05-30, 03:42:04,VALID,915.167,VALID,0,VALID,97.6331,VALID,0,VALID,19.3684,VALID,135,VALID,1.67188,
2012-05-30, 03:43:04,VALID,915.171,VALID,0,VALID,97.6407,VALID,0.107441,VALID,19.3893,VALID,132,VALID,1.71172,
2012-05-30, 03:44:04,VALID,915.139,VALID,0,VALID,97.6483,VALID,0.107441,VALID,19.3684,VALID,144,VALID,1.59766,
2012-05-30, 03:45:04,VALID,915.132,VALID,0,VALID,97.6407,VALID,0,VALID,19.3489,VALID,123,VALID,0.998828,